IGO6892 VOMM-VOBL

Flight info

Callsign IGO6892
Flight time 0h 36m
Altitude 20000
Route DCT MMV W117 BIA DCT
Aircraft A320/M-SDE2E3FGHIJ1RWYZLB1/C

Departure

Time 2026-04-25 18:21
Airport Chennai International Airport (VOMM)

Arrival

Time 2026-04-25 18:58
Airport Kempegowda International Airport Bengaluru (VOBL)
Time Latitude Longitude Altitude Speed Heading
2026-04-25 17:41 12.98223 80.15990 45 ft 0 kts 157°
2026-04-25 18:08 12.98238 80.15984 45 ft 2 kts 157°
2026-04-25 18:09 12.98254 80.15977 45 ft 2 kts 157°
2026-04-25 18:09 12.98269 80.15971 43 ft 2 kts 152°
2026-04-25 18:09 12.98280 80.15959 43 ft 2 kts 80°
2026-04-25 18:09 12.98279 80.15953 43 ft 2 kts 79°
2026-04-25 18:10 12.98279 80.15950 44 ft 0 kts 79°
2026-04-25 18:14 12.98281 80.15965 43 ft 6 kts 79°
2026-04-25 18:14 12.98316 80.16030 47 ft 14 kts 57°
2026-04-25 18:14 12.98337 80.16066 47 ft 9 kts 59°
2026-04-25 18:14 12.98366 80.16149 47 ft 16 kts 73°
2026-04-25 18:15 12.98410 80.16282 47 ft 23 kts 69°
2026-04-25 18:15 12.98476 80.16454 48 ft 29 kts 68°
2026-04-25 18:15 12.98551 80.16654 48 ft 30 kts 71°
2026-04-25 18:15 12.98627 80.16771 48 ft 11 kts
2026-04-25 18:16 12.98680 80.16741 48 ft 10 kts 332°
2026-04-25 18:16 12.98754 80.16745 48 ft 13 kts 36°
2026-04-25 18:16 12.98843 80.16962 48 ft 20 kts 68°
2026-04-25 18:17 12.98899 80.17107 48 ft 23 kts 69°
2026-04-25 18:17 12.98970 80.17267 49 ft 25 kts 50°
2026-04-25 18:17 12.99003 80.17363 47 ft 13 kts 57°
2026-04-25 18:17 12.99057 80.17485 50 ft 24 kts 68°
2026-04-25 18:18 12.99117 80.17654 50 ft 30 kts 70°
2026-04-25 18:18 12.99180 80.17719 51 ft 15 kts 31°
2026-04-25 18:18 12.99251 80.17839 51 ft 25 kts 71°
2026-04-25 18:18 12.99315 80.18013 49 ft 16 kts 69°
2026-04-25 18:19 12.99324 80.18035 51 ft 7 kts 69°
2026-04-25 18:19 12.99352 80.18109 48 ft 15 kts 70°
2026-04-25 18:19 12.99363 80.18224 52 ft 16 kts 82°
2026-04-25 18:19 12.99381 80.18268 51 ft 9 kts 56°
2026-04-25 18:20 12.99454 80.18346 51 ft 20 kts 21°
2026-04-25 18:20 12.99572 80.18438 52 ft 14 kts
2026-04-25 18:20 12.99585 80.18413 52 ft 6 kts 240°
2026-04-25 18:20 12.99572 80.18373 51 ft 18 kts 250°
2026-04-25 18:21 12.99410 80.17944 52 ft 109 kts 248°
2026-04-25 18:21 12.99048 80.16984 48 ft 176 kts 249°
2026-04-25 18:21 12.98563 80.15663 287 ft 215 kts 248°
2026-04-25 18:21 12.97984 80.14193 770 ft 218 kts 247°
2026-04-25 18:22 12.97431 80.12755 1284 ft 216 kts 246°
2026-04-25 18:22 12.97254 80.12267 1466 ft 216 kts 246°
2026-04-25 18:22 12.96414 80.09846 2362 ft 218 kts 247°
2026-04-25 18:22 12.95893 80.08373 2880 ft 222 kts 247°
2026-04-25 18:23 12.95350 80.06877 3405 ft 226 kts 247°
2026-04-25 18:23 12.94798 80.05383 3920 ft 229 kts 247°
2026-04-25 18:23 12.94224 80.03846 4454 ft 232 kts 247°
2026-04-25 18:23 12.93631 80.02289 4981 ft 237 kts 247°
2026-04-25 18:24 12.93021 80.00706 5514 ft 240 kts 247°
2026-04-25 18:24 12.92390 79.99101 6071 ft 246 kts 247°
2026-04-25 18:24 12.91736 79.97465 6720 ft 251 kts 247°
2026-04-25 18:24 12.91073 79.95795 7375 ft 255 kts 251°
2026-04-25 18:25 12.90853 79.94013 8008 ft 259 kts 279°
2026-04-25 18:25 12.91349 79.92251 8696 ft 259 kts 294°
2026-04-25 18:25 12.92010 79.90522 9420 ft 262 kts 295°
2026-04-25 18:25 12.92684 79.88774 10118 ft 265 kts 295°
2026-04-25 18:26 12.93364 79.87010 10801 ft 267 kts 295°
2026-04-25 18:26 12.94048 79.85235 11508 ft 268 kts 295°
2026-04-25 18:26 12.94733 79.83448 12209 ft 270 kts 294°
2026-04-25 18:26 12.95421 79.81648 12907 ft 272 kts 294°
2026-04-25 18:27 12.96110 79.79836 13601 ft 274 kts 294°
2026-04-25 18:27 12.96804 79.78013 14235 ft 275 kts 293°
2026-04-25 18:27 12.97493 79.76204 14833 ft 277 kts 293°
2026-04-25 18:27 12.98196 79.74358 15430 ft 279 kts 292°
2026-04-25 18:28 12.98901 79.72498 16024 ft 281 kts 292°
2026-04-25 18:28 12.99611 79.70623 16635 ft 283 kts 291°
2026-04-25 18:28 13.00329 79.68733 17205 ft 286 kts 291°
2026-04-25 18:29 13.01788 79.64901 18338 ft 290 kts 291°
2026-04-25 18:29 13.02523 79.62964 18823 ft 293 kts 291°
2026-04-25 18:30 13.04788 79.56998 19881 ft 319 kts 291°
2026-04-25 18:30 13.05617 79.54811 19911 ft 340 kts 291°
2026-04-25 18:30 13.06497 79.52484 19914 ft 360 kts 291°
2026-04-25 18:30 13.07426 79.50029 19913 ft 379 kts 291°
2026-04-25 18:31 13.08403 79.47455 19911 ft 396 kts 291°
2026-04-25 18:31 13.09427 79.44765 19910 ft 413 kts 291°
2026-04-25 18:31 13.10474 79.42005 19923 ft 428 kts 291°
2026-04-25 18:31 13.11571 79.39110 19923 ft 443 kts 291°
2026-04-25 18:32 13.12702 79.36125 19926 ft 456 kts 291°
2026-04-25 18:32 13.13863 79.33056 19921 ft 467 kts 291°
2026-04-25 18:32 13.15051 79.29911 19920 ft 478 kts 291°
2026-04-25 18:32 13.16265 79.26705 19937 ft 487 kts 291°
2026-04-25 18:33 13.17497 79.23452 20204 ft 487 kts 291°
2026-04-25 18:33 13.18714 79.20229 20811 ft 481 kts 291°
2026-04-25 18:33 13.19905 79.17044 21479 ft 475 kts 291°
2026-04-25 18:33 13.21060 79.13945 22150 ft 469 kts 291°
2026-04-25 18:34 13.22214 79.10834 22792 ft 465 kts 291°
2026-04-25 18:34 13.23388 79.07663 22308 ft 485 kts 291°
2026-04-25 18:34 13.24628 79.04410 22246 ft 493 kts 291°
2026-04-25 18:34 13.25908 79.01212 22110 ft 476 kts 292°
2026-04-25 18:35 13.27193 78.98125 21720 ft 464 kts 293°
2026-04-25 18:35 13.28456 78.95100 21313 ft 466 kts 292°
2026-04-25 18:35 13.29764 78.91977 20907 ft 486 kts 292°
2026-04-25 18:35 13.31098 78.88802 20944 ft 492 kts 293°
2026-04-25 18:36 13.32448 78.85575 21280 ft 492 kts 293°
2026-04-25 18:36 13.33788 78.82368 21256 ft 477 kts 293°
2026-04-25 18:36 13.35047 78.79347 20851 ft 444 kts 292°
2026-04-25 18:36 13.36232 78.76523 20453 ft 418 kts 293°
2026-04-25 18:37 13.37378 78.73804 20092 ft 418 kts 292°
2026-04-25 18:37 13.38517 78.71042 19952 ft 420 kts 289°
2026-04-25 18:37 13.39139 78.68133 19986 ft 417 kts 272°
2026-04-25 18:37 13.38953 78.65167 19987 ft 417 kts 258°
2026-04-25 18:38 13.38420 78.62282 19983 ft 417 kts 258°
2026-04-25 18:38 13.37872 78.59362 19994 ft 417 kts 258°
2026-04-25 18:38 13.37324 78.56441 19994 ft 416 kts 258°
2026-04-25 18:38 13.36776 78.53520 19994 ft 417 kts 258°
2026-04-25 18:39 13.36225 78.50599 19995 ft 417 kts 258°
2026-04-25 18:39 13.35677 78.47678 19995 ft 417 kts 258°
2026-04-25 18:39 13.35133 78.44757 19996 ft 417 kts 258°
2026-04-25 18:39 13.34587 78.41834 19997 ft 417 kts 258°
2026-04-25 18:40 13.34040 78.38910 20008 ft 417 kts 258°
2026-04-25 18:40 13.33501 78.36025 20010 ft 417 kts 258°
2026-04-25 18:40 13.32955 78.33100 19850 ft 417 kts 258°
2026-04-25 18:40 13.32410 78.30191 19572 ft 414 kts 258°
2026-04-25 18:41 13.31865 78.27292 19348 ft 413 kts 258°
2026-04-25 18:41 13.31320 78.24402 19134 ft 412 kts 258°
2026-04-25 18:41 13.30775 78.21526 18911 ft 410 kts 258°
2026-04-25 18:41 13.30232 78.18657 18689 ft 409 kts 258°
2026-04-25 18:42 13.29692 78.15795 18466 ft 408 kts 258°
2026-04-25 18:42 13.29517 78.14868 18395 ft 407 kts 258°
2026-04-25 18:42 13.28624 78.10138 17993 ft 405 kts 258°
2026-04-25 18:42 13.28092 78.07302 17739 ft 404 kts 258°
2026-04-25 18:43 13.27557 78.04471 17490 ft 403 kts 258°
2026-04-25 18:43 13.27022 78.01653 17234 ft 402 kts 258°
2026-04-25 18:43 13.26487 77.98838 16992 ft 401 kts 258°
2026-04-25 18:43 13.25955 77.96028 16753 ft 401 kts 259°
2026-04-25 18:44 13.25425 77.93218 16511 ft 401 kts 259°
2026-04-25 18:44 13.24896 77.90409 16268 ft 400 kts 259°
2026-04-25 18:44 13.24376 77.87650 16031 ft 399 kts 259°
2026-04-25 18:44 13.23853 77.84871 15791 ft 392 kts 259°
2026-04-25 18:45 13.23343 77.82184 15547 ft 372 kts 259°
2026-04-25 18:45 13.22855 77.79632 14727 ft 364 kts 259°
2026-04-25 18:45 13.22358 77.77046 13330 ft 375 kts 259°
2026-04-25 18:45 13.21852 77.74386 11773 ft 384 kts 261°
2026-04-25 18:46 13.21664 77.71629 10235 ft 391 kts 274°
2026-04-25 18:46 13.22069 77.68859 8645 ft 395 kts 287°
2026-04-25 18:46 13.23053 77.66309 7638 ft 383 kts 300°
2026-04-25 18:46 13.24412 77.64064 7149 ft 358 kts 305°
2026-04-25 18:47 13.25716 77.61999 6906 ft 332 kts 304°
2026-04-25 18:47 13.26918 77.60079 6772 ft 308 kts 305°
2026-04-25 18:47 13.28033 77.58296 6639 ft 286 kts 305°
2026-04-25 18:47 13.29070 77.56643 6576 ft 264 kts 305°
2026-04-25 18:48 13.30023 77.55132 6583 ft 240 kts 305°
2026-04-25 18:48 13.30900 77.53748 6586 ft 226 kts 306°
2026-04-25 18:48 13.31710 77.52470 6589 ft 201 kts 306°
2026-04-25 18:48 13.32355 77.51289 6578 ft 188 kts 292°
2026-04-25 18:49 13.32627 77.49986 6546 ft 188 kts 274°
2026-04-25 18:49 13.32511 77.48678 6444 ft 180 kts 256°
2026-04-25 18:49 13.32058 77.47505 6322 ft 175 kts 239°
2026-04-25 18:49 13.31327 77.46519 6203 ft 173 kts 222°
2026-04-25 18:50 13.30382 77.45785 6082 ft 169 kts 206°
2026-04-25 18:50 13.29304 77.45321 5960 ft 168 kts 195°
2026-04-25 18:50 13.28202 77.44951 5835 ft 166 kts 193°
2026-04-25 18:50 13.27097 77.44633 5723 ft 165 kts 191°
2026-04-25 18:51 13.26001 77.44370 5701 ft 164 kts 187°
2026-04-25 18:51 13.25621 77.44292 5701 ft 165 kts 186°
2026-04-25 18:51 13.23750 77.44084 5703 ft 160 kts 167°
2026-04-25 18:51 13.22743 77.44497 5701 ft 155 kts 140°
2026-04-25 18:52 13.22041 77.45310 5703 ft 152 kts 117°
2026-04-25 18:52 13.21504 77.46246 5702 ft 152 kts 118°
2026-04-25 18:52 13.20961 77.47177 5703 ft 152 kts 118°
2026-04-25 18:52 13.20416 77.48110 5703 ft 152 kts 118°
2026-04-25 18:53 13.19873 77.49040 5702 ft 152 kts 118°
2026-04-25 18:53 13.19386 77.49984 5704 ft 151 kts 108°
2026-04-25 18:53 13.19214 77.51042 5703 ft 152 kts 94°
2026-04-25 18:53 13.19151 77.52123 5703 ft 151 kts 92°
2026-04-25 18:54 13.19101 77.54289 5620 ft 152 kts 91°
2026-04-25 18:54 13.19088 77.55370 5468 ft 151 kts 91°
2026-04-25 18:54 13.19077 77.56445 5299 ft 151 kts 91°
2026-04-25 18:55 13.19068 77.57506 5115 ft 150 kts 92°
2026-04-25 18:55 13.19059 77.58574 4933 ft 149 kts 93°
2026-04-25 18:55 13.19050 77.59637 4753 ft 149 kts 93°
2026-04-25 18:55 13.19042 77.60700 4555 ft 149 kts 93°
2026-04-25 18:56 13.19033 77.61765 4357 ft 149 kts 93°
2026-04-25 18:56 13.19024 77.62824 4187 ft 147 kts 94°
2026-04-25 18:56 13.19016 77.63873 3991 ft 147 kts 92°
2026-04-25 18:56 13.19007 77.64927 3799 ft 148 kts 93°
2026-04-25 18:57 13.19001 77.65629 3667 ft 149 kts 92°
2026-04-25 18:57 13.18989 77.67029 3396 ft 149 kts 91°
2026-04-25 18:57 13.18981 77.68093 3197 ft 149 kts 93°
2026-04-25 18:57 13.18977 77.68452 3134 ft 149 kts 92°
2026-04-25 18:58 13.18962 77.70115 2980 ft 103 kts 90°
2026-04-25 18:58 13.18962 77.70639 2969 ft 28 kts 90°
2026-04-25 18:58 13.18995 77.70880 2952 ft 30 kts 56°
2026-04-25 18:59 13.19063 77.71024 2949 ft 0 kts 64°
2026-04-25 18:59 13.19063 77.71025 2957 ft 0 kts 64°
2026-04-25 19:00 13.19113 77.71114 2956 ft 27 kts 66°
2026-04-25 19:01 13.19119 77.71746 2938 ft 60 kts 88°
2026-04-25 19:01 13.19118 77.72113 2935 ft 42 kts 91°
2026-04-25 19:01 13.19117 77.72457 2928 ft 31 kts 91°
2026-04-25 19:01 13.19120 77.72490 2923 ft 0 kts 69°
2026-04-25 19:02 13.19286 77.72435 2928 ft 31 kts
2026-04-25 19:02 13.19557 77.72448 2927 ft 48 kts 358°
2026-04-25 19:02 13.19872 77.72443 2925 ft 26 kts
2026-04-25 19:03 13.20071 77.72446 2924 ft 25 kts
2026-04-25 19:03 13.20274 77.72451 2923 ft 23 kts 356°
2026-04-25 19:03 13.20410 77.72349 2923 ft 11 kts 292°
2026-04-25 19:04 13.20434 77.72121 2927 ft 12 kts 268°
2026-04-25 19:04 13.20434 77.71989 2930 ft 24 kts 270°
2026-04-25 19:05 13.20435 77.71841 2933 ft 17 kts 270°
2026-04-25 19:05 13.20404 77.71263 2943 ft 22 kts 210°
2026-04-25 19:05 13.20274 77.71255 2946 ft 7 kts 238°
2026-04-25 19:06 13.20261 77.71131 2949 ft 32 kts 256°
2026-04-25 19:06 13.20157 77.70929 2947 ft 0 kts 152°
2026-04-25 19:06 13.20156 77.70930 2947 ft 0 kts 152°